• In Lithuania
  • List of Countries
  • For 7 days
  • Water Temperature
  • Satellite Maps
  • Weather Map
  • Weather Widgets
  • user-avatar
    Login

    Hourly Weather Newcastle

    Today, 24 January, Wednesday

    Time Temperature Precipitation Wind Pressure Humidity
    00:00 +1°C° 0 mm 1 mps 628 mmHg 58%
    01:00 +1°C° 0 mm 1 mps 628 mmHg 56%
    02:00 +1°C° 0 mm 1 mps 628 mmHg 54%
    03:00 +1°C° 0 mm 1 mps 628 mmHg 52%
    04:00 -1°C° 0 mm 2 mps 628 mmHg 49%
    05:00 -1°C° 0 mm 2 mps 628 mmHg 48%
    06:00 -2°C° 0 mm 2 mps 628 mmHg 46%
    07:00 -2°C° 0 mm 2 mps 628 mmHg 44%
    08:00 +2°C° 0 mm 2 mps 628 mmHg 40%
    09:00 +3°C° 0 mm 3 mps 629 mmHg 36%
    10:00 +7°C° 0 mm 3 mps 629 mmHg 31%
    11:00 +6°C° 0 mm 4 mps 629 mmHg 29%
    12:00 +7°C° 0 mm 5 mps 628 mmHg 27%
    13:00 +8°C° 0 mm 5 mps 628 mmHg 25%
    14:00 +7°C° 0 mm 5 mps 627 mmHg 29%
    15:00 +6°C° 0 mm 4 mps 626 mmHg 33%
    16:00 +5°C° 0 mm 4 mps 626 mmHg 37%
    17:00 +4°C° 0 mm 4 mps 625 mmHg 38%
    18:00 +1°C° 0 mm 4 mps 625 mmHg 40%
    19:00 0°C° 0 mm 4 mps 625 mmHg 41%
    20:00 0°C° 0 mm 4 mps 624 mmHg 41%
    21:00 0°C° 0 mm 4 mps 624 mmHg 41%
    22:00 -1°C° 0 mm 4 mps 624 mmHg 42%
    23:00 -1°C° 0 mm 4 mps 623 mmHg 42%

    Tomorrow, 25 January, Thursday

    Time Temperature Precipitation Wind Pressure Humidity
    00:00 -1°C° 0 mm 4 mps 623 mmHg 42%
    01:00 -1°C° 0 mm 4 mps 623 mmHg 42%
    02:00 -1°C° 0 mm 4 mps 622 mmHg 42%
    03:00 -1°C° 0 mm 4 mps 622 mmHg 42%
    04:00 -1°C° 0 mm 4 mps 621 mmHg 42%
    05:00 -1°C° 0 mm 4 mps 621 mmHg 41%
    06:00 -1°C° 0 mm 4 mps 621 mmHg 41%
    07:00 -1°C° 0 mm 4 mps 621 mmHg 40%
    08:00 +1°C° 0 mm 6 mps 621 mmHg 37%
    09:00 +2°C° 0 mm 8 mps 622 mmHg 33%
    10:00 +5°C° 0 mm 10 mps 622 mmHg 30%
    11:00 +5°C° 0 mm 10 mps 622 mmHg 34%
    12:00 +5°C° 0 mm 10 mps 622 mmHg 38%
    13:00 +5°C° 0 mm 10 mps 621 mmHg 42%
    14:00 +4°C° 0 mm 8 mps 621 mmHg 45%
    15:00 +3°C° 0 mm 6 mps 621 mmHg 48%
    16:00 +3°C° 0 mm 5 mps 622 mmHg 51%
    17:00 +2°C° 0 mm 3 mps 622 mmHg 55%
    18:00 +2°C° 0 mm 2 mps 622 mmHg 59%
    19:00 +1°C° 0 mm 1 mps 621 mmHg 63%
    20:00 +1°C° 0 mm 1 mps 622 mmHg 64%
    21:00 +1°C° 0 mm 1 mps 622 mmHg 64%
    22:00 0°C° 0 mm 1 mps 622 mmHg 65%
    23:00 0°C° 0 mm 1 mps 622 mmHg 66%

    Day after tomorrow, 26 January, Friday

    Time Temperature Precipitation Wind Pressure Humidity
    00:00 0°C° 0 mm 1 mps 622 mmHg 67%
    01:00 0°C° 0 mm 1 mps 622 mmHg 67%
    02:00 0°C° 0 mm 1 mps 622 mmHg 68%
    03:00 0°C° 0 mm 1 mps 622 mmHg 69%
    04:00 -1°C° 0 mm 1 mps 622 mmHg 70%
    05:00 -1°C° 0 mm 1 mps 623 mmHg 69%
    06:00 -1°C° 0 mm 1 mps 624 mmHg 68%
    07:00 -1°C° 0 mm 1 mps 624 mmHg 67%
    08:00 -1°C° 0 mm 2 mps 625 mmHg 57%
    09:00 +1°C° 0 mm 2 mps 626 mmHg 48%
    10:00 +3°C° 0 mm 2 mps 627 mmHg 39%
    11:00 +3°C° 0 mm 2 mps 626 mmHg 36%
    12:00 +4°C° 0 mm 2 mps 626 mmHg 32%
    13:00 +5°C° 0 mm 2 mps 626 mmHg 29%
    14:00 +4°C° 0 mm 2 mps 626 mmHg 32%
    15:00 +4°C° 0 mm 2 mps 626 mmHg 34%
    16:00 +4°C° 0 mm 2 mps 626 mmHg 36%
    17:00 +2°C° 0 mm 2 mps 626 mmHg 39%
    18:00 +2°C° 0 mm 1 mps 626 mmHg 41%
    19:00 +1°C° 0 mm 1 mps 626 mmHg 44%
    20:00 +1°C° 0 mm 1 mps 626 mmHg 43%
    21:00 +1°C° 0 mm 1 mps 626 mmHg 43%
    22:00 0°C° 0 mm 1 mps 627 mmHg 42%
    23:00 0°C° 0 mm 1 mps 627 mmHg 41%

    27 January, Saturday

    Time Temperature Precipitation Wind Pressure Humidity
    00:00 0°C° 0 mm 1 mps 627 mmHg 41%
    01:00 0°C° 0 mm 1 mps 627 mmHg 40%
    02:00 0°C° 0 mm 1 mps 627 mmHg 39%
    03:00 0°C° 0 mm 1 mps 627 mmHg 37%
    04:00 +1°C° 0 mm 1 mps 627 mmHg 36%
    05:00 +1°C° 0 mm 1 mps 627 mmHg 36%
    06:00 +1°C° 0 mm 1 mps 628 mmHg 35%
    07:00 +1°C° 0 mm 1 mps 628 mmHg 34%
    08:00 +3°C° 0 mm 1 mps 629 mmHg 30%
    09:00 +5°C° 0 mm 1 mps 630 mmHg 26%
    10:00 +7°C° 0 mm 1 mps 630 mmHg 22%
    11:00 +7°C° 0 mm 2 mps 630 mmHg 22%
    12:00 +8°C° 0 mm 2 mps 630 mmHg 23%
    13:00 +9°C° 0 mm 3 mps 630 mmHg 23%
    14:00 +9°C° 0 mm 2 mps 629 mmHg 27%
    15:00 +8°C° 0 mm 2 mps 629 mmHg 31%
    16:00 +7°C° 0 mm 2 mps 629 mmHg 36%
    17:00 +7°C° 0 mm 1 mps 629 mmHg 37%
    18:00 +6°C° 0 mm 1 mps 629 mmHg 39%
    19:00 +4°C° 0 mm 1 mps 629 mmHg 41%
    20:00 +4°C° 0 mm 1 mps 629 mmHg 43%
    21:00 +4°C° 0 mm 1 mps 629 mmHg 45%
    22:00 +4°C° 0 mm 1 mps 629 mmHg 46%
    23:00 +4°C° 0 mm 1 mps 629 mmHg 48%

    28 January, Sunday

    Time Temperature Precipitation Wind Pressure Humidity
    00:00 +4°C° 0 mm 1 mps 629 mmHg 50%
    01:00 +4°C° 0 mm 1 mps 629 mmHg 52%
    02:00 +4°C° 0 mm 1 mps 629 mmHg 53%
    03:00 +4°C° 0 mm 1 mps 629 mmHg 55%
    04:00 +3°C° 0 mm 2 mps 629 mmHg 56%
    05:00 +3°C° 0 mm 2 mps 630 mmHg 58%
    06:00 +3°C° 0 mm 2 mps 630 mmHg 59%
    07:00 +3°C° 0 mm 2 mps 630 mmHg 61%
    08:00 +5°C° 0 mm 2 mps 631 mmHg 55%
    09:00 +7°C° 0 mm 2 mps 632 mmHg 48%
    10:00 +10°C° 0 mm 2 mps 633 mmHg 42%
    11:00 +10°C° 0 mm 2 mps 633 mmHg 41%
    12:00 +12°C° 0 mm 1 mps 633 mmHg 39%
    13:00 +13°C° 0 mm 1 mps 632 mmHg 38%
    14:00 +13°C° 0 mm 2 mps 632 mmHg 42%
    15:00 +12°C° 0 mm 2 mps 632 mmHg 45%
    16:00 +12°C° 0 mm 2 mps 632 mmHg 49%
    17:00 +9°C° 0 mm 2 mps 632 mmHg 53%
    18:00 +8°C° 0 mm 2 mps 631 mmHg 57%
    19:00 +6°C° 0 mm 2 mps 631 mmHg 62%
    20:00 +6°C° 0 mm 2 mps 631 mmHg 63%
    21:00 +5°C° 0 mm 2 mps 631 mmHg 64%
    22:00 +5°C° 0 mm 2 mps 631 mmHg 65%
    23:00 +5°C° 0 mm 2 mps 631 mmHg 66%

    29 January, Monday

    Time Temperature Precipitation Wind Pressure Humidity
    00:00 +4°C° 0 mm 2 mps 631 mmHg 66%
    01:00 +4°C° 0 mm 2 mps 631 mmHg 66%
    02:00 +4°C° 0 mm 2 mps 631 mmHg 66%
    03:00 +4°C° 0 mm 2 mps 631 mmHg 66%
    04:00 +4°C° 0 mm 2 mps 631 mmHg 65%
    05:00 +4°C° 0 mm 2 mps 631 mmHg 64%
    06:00 +4°C° 0 mm 2 mps 631 mmHg 63%
    07:00 +4°C° 0 mm 2 mps 631 mmHg 62%
    08:00 +6°C° 0 mm 2 mps 632 mmHg 54%
    09:00 +9°C° 0 mm 1 mps 632 mmHg 46%
    10:00 +12°C° 0 mm 1 mps 633 mmHg 38%
    11:00 +13°C° 0 mm 2 mps 633 mmHg 35%
    12:00 +14°C° 0 mm 2 mps 632 mmHg 33%
    13:00 +15°C° 0 mm 2 mps 632 mmHg 30%
    14:00 +15°C° 0 mm 2 mps 632 mmHg 32%
    15:00 +14°C° 0 mm 2 mps 631 mmHg 34%
    16:00 +13°C° 0 mm 2 mps 631 mmHg 37%
    17:00 +12°C° 0 mm 2 mps 630 mmHg 39%
    18:00 +9°C° 0 mm 2 mps 630 mmHg 42%
    19:00 +8°C° 0 mm 2 mps 629 mmHg 45%
    20:00 +7°C° 0 mm 2 mps 629 mmHg 45%
    21:00 +7°C° 0 mm 2 mps 629 mmHg 45%
    22:00 +7°C° 0 mm 2 mps 629 mmHg 45%
    23:00 +7°C° 0 mm 2 mps 628 mmHg 45%
    Show more